Location: Bakov nad Jizerou
(50.4784°N, 14.9394°E)
Time: 08:02:31
(UTC+00:00)

RESURS 01 DEB - Visible Passes

Search period start: 29 January 2022 00:00
Search period end: 08 February 2022 00:00
Orbit: 611 x 622 km, 97.9° (Epoch: 28 January)

Date Brightness Start Highest point End Pass type
(mag) Time Alt. Az. Time Alt. Az. Time Alt. Az.
01 Feb ? 18:01:09 10° NNE 18:01:09 10° NNE 18:01:12 10° NNE visible
02 Feb ? 18:17:11 12° N 18:17:11 12° N 18:17:31 10° N visible
03 Feb ? 18:33:11 13° N 18:33:11 13° N 18:33:42 10° N visible
04 Feb ? 18:49:10 14° N 18:49:10 14° N 18:49:47 10° N visible
05 Feb ? 19:05:07 14° N 19:05:07 14° N 19:05:47 10° N visible
06 Feb ? 17:43:58 11° NNE 17:43:58 11° NNE 17:44:22 10° NNE visible
06 Feb ? 19:21:02 14° NNW 19:21:02 14° NNW 19:21:42 10° NNW visible
07 Feb ? 17:59:52 14° NNE 17:59:52 14° NNE 18:00:44 10° NNE visible
07 Feb ? 19:36:56 14° NNW 19:36:56 14° NNW 19:37:31 10° NNW visible
